TimeEST,TemperatureF,Dew PointF,Humidity,Sea Level PressureIn,VisibilityMPH,Wind Direction,Wind SpeedMPH,Gust SpeedMPH,PrecipitationIn,Events,Conditions,WindDirDegrees,DateUTC
12:15 AM,39.2,35.6,87,30.15,10.0,Calm,Calm,-,N/A,,Clear,0,2013-03-05 05:15:00
12:35 AM,37.4,35.6,93,30.14,10.0,Calm,Calm,-,N/A,,Clear,0,2013-03-05 05:35:00
12:55 AM,37.4,35.6,93,30.14,10.0,Calm,Calm,-,N/A,,Clear,0,2013-03-05 05:55:00
1:35 AM,35.6,35.6,100,30.13,10.0,Calm,Calm,-,N/A,,Clear,0,2013-03-05 06:35:00
1:55 AM,35.6,33.8,93,30.13,10.0,Calm,Calm,-,N/A,,Clear,0,2013-03-05 06:55:00
2:15 AM,35.6,33.8,93,30.13,10.0,Calm,Calm,-,N/A,,Clear,0,2013-03-05 07:15:00
2:35 AM,35.6,33.8,93,30.12,10.0,Calm,Calm,-,N/A,,Clear,0,2013-03-05 07:35:00
2:55 AM,35.6,35.6,100,30.13,10.0,Calm,Calm,-,N/A,,Clear,0,2013-03-05 07:55:00
3:15 AM,37.4,35.6,93,30.14,9.0,Calm,Calm,-,N/A,,Clear,0,2013-03-05 08:15:00
3:35 AM,37.4,35.6,93,30.14,10.0,Calm,Calm,-,N/A,,Clear,0,2013-03-05 08:35:00
3:55 AM,35.6,33.8,93,30.14,10.0,Calm,Calm,-,N/A,,Clear,0,2013-03-05 08:55:00
4:15 AM,35.6,33.8,93,30.15,10.0,Calm,Calm,-,N/A,,Clear,0,2013-03-05 09:15:00
4:35 AM,33.8,32.0,93,30.15,10.0,Calm,Calm,-,N/A,,Clear,0,2013-03-05 09:35:00
4:55 AM,33.8,32.0,93,30.15,10.0,Calm,Calm,-,N/A,,Clear,0,2013-03-05 09:55:00
5:35 AM,33.8,33.8,100,30.16,10.0,Calm,Calm,-,N/A,,Clear,0,2013-03-05 10:35:00
5:55 AM,33.8,32.0,93,30.17,10.0,Calm,Calm,-,N/A,,Clear,0,2013-03-05 10:55:00
6:15 AM,32.0,32.0,100,30.19,10.0,Calm,Calm,-,N/A,,Clear,0,2013-03-05 11:15:00
6:35 AM,33.8,32.0,93,30.19,10.0,Calm,Calm,-,N/A,,Clear,0,2013-03-05 11:35:00
6:50 AM,32.0,32.0,100,30.19,10.0,Calm,Calm,-,N/A,,Clear,0,2013-03-05 11:50:00
8:50 AM,53.6,39.2,58,30.19,10.0,Calm,Calm,-,N/A,,Clear,0,2013-03-05 13:50:00
9:50 AM,59.0,37.4,45,30.16,10.0,South,9.2,-,N/A,,Clear,180,2013-03-05 14:50:00
11:50 AM,68.0,39.2,35,30.12,10.0,South,11.5,-,N/A,,Clear,190,2013-03-05 16:50:00
12:50 PM,71.6,39.2,31,30.08,10.0,South,11.5,-,N/A,,Clear,190,2013-03-05 17:50:00
1:50 PM,75.2,41.0,29,30.04,10.0,SSW,15.0,-,N/A,,Clear,210,2013-03-05 18:50:00
2:50 PM,73.4,46.4,38,30.03,10.0,WSW,11.5,-,N/A,,Clear,240,2013-03-05 19:50:00
3:50 PM,73.4,51.8,47,30.00,10.0,WSW,20.7,-,N/A,,Clear,240,2013-03-05 20:50:00
4:50 PM,73.4,53.6,50,29.98,10.0,WSW,18.4,-,N/A,,Mostly Cloudy,250,2013-03-05 21:50:00
5:50 PM,69.8,53.6,56,29.97,10.0,WSW,11.5,-,N/A,,Partly Cloudy,240,2013-03-05 22:50:00
6:50 PM,68.0,53.6,60,29.95,10.0,SSW,12.7,-,N/A,,Clear,200,2013-03-05 23:50:00
7:50 PM,66.2,53.6,64,29.96,10.0,SSW,13.8,-,N/A,,Partly Cloudy,210,2013-03-06 00:50:00
8:15 PM,64.4,53.6,68,29.96,10.0,SSW,11.5,17.3,N/A,,Clear,200,2013-03-06 01:15:00
8:35 PM,64.4,53.6,68,29.96,10.0,SSW,13.8,19.6,N/A,,Clear,200,2013-03-06 01:35:00
8:55 PM,64.4,53.6,68,29.96,10.0,SSW,10.4,20.7,N/A,,Partly Cloudy,200,2013-03-06 01:55:00
9:15 PM,62.6,55.4,77,29.95,10.0,South,12.7,18.4,N/A,,Clear,190,2013-03-06 02:15:00
9:35 PM,62.6,55.4,77,29.95,10.0,SSW,11.5,19.6,N/A,,Clear,210,2013-03-06 02:35:00
9:55 PM,62.6,55.4,77,29.95,10.0,SSW,13.8,21.9,N/A,,Clear,200,2013-03-06 02:55:00
10:15 PM,62.6,55.4,77,29.95,10.0,SSW,10.4,20.7,N/A,,Partly Cloudy,200,2013-03-06 03:15:00
10:35 PM,62.6,55.4,77,29.95,10.0,SSW,10.4,19.6,N/A,,Partly Cloudy,210,2013-03-06 03:35:00
10:55 PM,64.4,57.2,77,29.94,10.0,SSW,16.1,24.2,N/A,,Mostly Cloudy,200,2013-03-06 03:55:00
11:15 PM,62.6,57.2,82,29.93,10.0,SSW,12.7,18.4,N/A,,Scattered Clouds,200,2013-03-06 04:15:00
11:35 PM,62.6,57.2,82,29.92,10.0,SSW,11.5,19.6,N/A,,Mostly Cloudy,200,2013-03-06 04:35:00
11:55 PM,64.4,59.0,83,29.92,10.0,SSW,17.3,-,N/A,,Mostly Cloudy,210,2013-03-06 04:55:00